Time,TemperatureF,DewpointF,PressureIn,WindDirection,WindDirectionDegrees,WindSpeedMPH,WindSpeedGustMPH,Humidity,HourlyPrecipIn,Conditions,Clouds,dailyrainin,SoftwareType,DateUTC
2013-05-20 00:02:00,79.0,64.0,29.86,North,0,0.0,0.0,61,0.00,,,0.00,,2013-05-20 05:02:00,
2013-05-20 00:12:00,79.0,64.0,29.86,North,0,0.0,0.0,61,0.00,,,0.00,,2013-05-20 05:12:00,
2013-05-20 00:21:00,79.0,64.0,29.86,North,0,0.0,0.0,61,0.00,,,0.00,,2013-05-20 05:21:00,
2013-05-20 00:32:00,79.0,64.0,29.86,North,0,0.0,0.0,61,0.00,,,0.00,,2013-05-20 05:32:00,
2013-05-20 00:42:00,79.0,64.0,29.86,North,0,0.0,0.0,61,0.00,,,0.00,,2013-05-20 05:42:00,
2013-05-20 00:52:00,79.0,64.0,29.86,North,0,0.0,0.0,61,0.00,,,0.00,,2013-05-20 05:52:00,
2013-05-20 01:01:00,79.0,64.0,29.86,North,0,0.0,0.0,61,0.00,,,0.00,,2013-05-20 06:01:00,
2013-05-20 01:11:00,79.0,64.0,29.85,North,0,0.0,0.0,61,0.00,,,0.00,,2013-05-20 06:11:00,
2013-05-20 01:21:00,79.0,64.0,29.85,North,0,0.0,0.0,61,0.00,,,0.00,,2013-05-20 06:21:00,
2013-05-20 01:32:00,79.0,64.0,29.85,North,0,0.0,0.0,61,0.00,,,0.00,,2013-05-20 06:32:00,
2013-05-20 01:41:00,79.0,64.0,29.85,North,0,0.0,0.0,61,0.00,,,0.00,,2013-05-20 06:41:00,
2013-05-20 01:52:00,79.0,64.0,29.85,North,0,0.0,0.0,61,0.00,,,0.00,,2013-05-20 06:52:00,
2013-05-20 02:01:00,79.0,64.0,29.85,North,0,0.0,0.0,61,0.00,,,0.00,,2013-05-20 07:01:00,
2013-05-20 02:12:00,79.0,64.0,29.85,North,0,0.0,0.0,61,0.00,,,0.00,,2013-05-20 07:12:00,
2013-05-20 02:21:00,79.0,64.0,29.85,North,0,0.0,0.0,61,0.00,,,0.00,,2013-05-20 07:21:00,
2013-05-20 02:32:00,79.0,64.0,29.84,North,0,0.0,0.0,61,0.00,,,0.00,,2013-05-20 07:32:00,
2013-05-20 02:42:00,79.0,64.0,29.84,North,0,0.0,0.0,61,0.00,,,0.00,,2013-05-20 07:42:00,
2013-05-20 02:52:00,79.0,64.0,29.84,North,0,0.0,0.0,61,0.00,,,0.00,,2013-05-20 07:52:00,
2013-05-20 03:01:00,79.0,64.0,29.85,North,0,0.0,0.0,61,0.00,,,0.00,,2013-05-20 08:01:00,
2013-05-20 03:11:00,79.0,64.0,29.85,North,0,0.0,0.0,61,0.00,,,0.00,,2013-05-20 08:11:00,
2013-05-20 03:21:00,79.0,64.0,29.85,North,0,0.0,0.0,61,0.00,,,0.00,,2013-05-20 08:21:00,
2013-05-20 03:32:00,79.0,64.0,29.85,North,0,0.0,0.0,61,0.00,,,0.00,,2013-05-20 08:32:00,
2013-05-20 03:41:00,79.0,64.0,29.85,North,0,0.0,0.0,61,0.00,,,0.00,,2013-05-20 08:41:00,
2013-05-20 03:51:00,79.0,64.0,29.85,North,0,0.0,0.0,61,0.00,,,0.00,,2013-05-20 08:51:00,
2013-05-20 04:02:00,79.0,64.0,29.85,North,0,0.0,0.0,61,0.00,,,0.00,,2013-05-20 09:02:00,
2013-05-20 04:21:00,79.0,64.0,29.86,North,0,0.0,0.0,61,0.00,,,0.00,,2013-05-20 09:21:00,
2013-05-20 04:32:00,79.0,64.0,29.86,North,0,0.0,0.0,61,0.00,,,0.00,,2013-05-20 09:32:00,
2013-05-20 04:53:00,79.0,64.0,29.85,North,0,0.0,0.0,61,0.00,,,0.00,,2013-05-20 09:53:00,
2013-05-20 05:03:00,79.0,64.0,29.85,North,0,0.0,0.0,61,0.00,,,0.00,,2013-05-20 10:03:00,
2013-05-20 05:22:00,79.0,64.0,29.86,North,0,0.0,0.0,61,0.00,,,0.00,,2013-05-20 10:22:00,
2013-05-20 05:32:00,79.0,64.0,29.86,North,0,0.0,0.0,61,0.00,,,0.00,,2013-05-20 10:32:00,
2013-05-20 05:52:00,79.0,64.0,29.87,North,0,0.0,0.0,61,0.00,,,0.00,,2013-05-20 10:52:00,
2013-05-20 06:02:00,79.0,64.0,29.87,North,0,0.0,0.0,61,0.00,,,0.00,,2013-05-20 11:02:00,
2013-05-20 06:21:00,79.0,64.0,29.87,North,0,0.0,0.0,61,0.00,,,0.00,,2013-05-20 11:21:00,
2013-05-20 06:32:00,79.0,64.0,29.88,North,0,0.0,0.0,61,0.00,,,0.00,,2013-05-20 11:32:00,
2013-05-20 06:51:00,79.0,64.0,29.88,North,0,0.0,0.0,61,0.00,,,0.00,,2013-05-20 11:51:00,
2013-05-20 07:01:00,79.0,64.0,29.88,North,0,0.0,0.0,61,0.00,,,0.00,,2013-05-20 12:01:00,
2013-05-20 07:21:00,79.0,64.0,29.88,North,0,0.0,0.0,61,0.00,,,0.00,,2013-05-20 12:21:00,
2013-05-20 07:32:00,79.0,64.0,29.90,North,0,0.0,0.0,61,0.00,,,0.00,,2013-05-20 12:32:00,
2013-05-20 07:52:00,79.0,64.0,29.90,North,0,0.0,0.0,61,0.00,,,0.00,,2013-05-20 12:52:00,
2013-05-20 08:01:00,79.0,64.0,29.91,North,0,0.0,0.0,61,0.00,,,0.00,,2013-05-20 13:01:00,
2013-05-20 08:11:00,79.0,64.0,29.91,North,0,0.0,0.0,61,0.00,,,0.00,,2013-05-20 13:11:00,
2013-05-20 08:22:00,79.0,64.0,29.92,North,0,0.0,0.0,61,0.00,,,0.00,,2013-05-20 13:22:00,
2013-05-20 08:31:00,79.0,64.0,29.92,North,0,0.0,0.0,61,0.00,,,0.00,,2013-05-20 13:31:00,
2013-05-20 08:42:00,79.0,64.0,29.92,North,0,0.0,0.0,61,0.00,,,0.00,,2013-05-20 13:42:00,
2013-05-20 08:52:00,79.0,64.0,29.91,North,0,0.0,0.0,61,0.00,,,0.00,,2013-05-20 13:52:00,
2013-05-20 09:01:00,79.0,64.0,29.91,North,0,0.0,0.0,61,0.00,,,0.00,,2013-05-20 14:01:00,
2013-05-20 09:11:00,79.0,64.0,29.91,North,0,0.0,0.0,61,0.00,,,0.00,,2013-05-20 14:11:00,
2013-05-20 09:22:00,79.0,64.0,29.91,North,0,0.0,0.0,61,0.00,,,0.00,,2013-05-20 14:22:00,
2013-05-20 09:32:00,79.0,64.0,29.92,North,0,0.0,0.0,61,0.00,,,0.00,,2013-05-20 14:32:00,
2013-05-20 09:41:00,79.0,64.0,29.92,North,0,0.0,0.0,61,0.00,,,0.00,,2013-05-20 14:41:00,
2013-05-20 09:52:00,79.0,64.0,29.92,North,0,0.0,0.0,61,0.00,,,0.00,,2013-05-20 14:52:00,
2013-05-20 10:01:00,79.0,64.0,29.92,North,0,0.0,0.0,61,0.00,,,0.00,,2013-05-20 15:01:00,
2013-05-20 10:11:00,79.0,64.0,29.92,North,0,0.0,0.0,61,0.00,,,0.00,,2013-05-20 15:11:00,
2013-05-20 10:21:00,79.0,64.0,29.92,North,0,0.0,0.0,61,0.00,,,0.00,,2013-05-20 15:21:00,
2013-05-20 10:33:00,79.0,64.0,29.92,North,0,0.0,0.0,61,0.00,,,0.00,,2013-05-20 15:33:00,
2013-05-20 10:42:00,79.0,64.0,29.92,North,0,0.0,0.0,61,0.00,,,0.00,,2013-05-20 15:42:00,
2013-05-20 10:53:00,79.0,64.0,29.92,North,0,0.0,0.0,61,0.00,,,0.00,,2013-05-20 15:53:00,
2013-05-20 11:03:00,79.0,64.0,29.92,North,0,0.0,0.0,61,0.00,,,0.00,,2013-05-20 16:03:00,
2013-05-20 11:12:00,79.0,64.0,29.92,North,0,0.0,0.0,61,0.00,,,0.00,,2013-05-20 16:12:00,
2013-05-20 11:22:00,79.0,64.0,29.93,North,0,0.0,0.0,61,0.00,,,0.00,,2013-05-20 16:22:00,
2013-05-20 11:33:00,79.0,64.0,29.93,North,0,0.0,0.0,61,0.00,,,0.00,,2013-05-20 16:33:00,
2013-05-20 11:42:00,79.0,64.0,29.93,North,0,0.0,0.0,61,0.00,,,0.00,,2013-05-20 16:42:00,
2013-05-20 11:53:00,79.0,64.0,29.91,North,0,0.0,0.0,61,0.00,,,0.00,,2013-05-20 16:53:00,
2013-05-20 12:02:00,79.0,64.0,29.91,North,0,0.0,0.0,61,0.00,,,0.00,,2013-05-20 17:02:00,
2013-05-20 12:12:00,79.0,64.0,29.91,North,0,0.0,0.0,61,0.00,,,0.00,,2013-05-20 17:12:00,
2013-05-20 12:22:00,79.0,64.0,29.91,North,0,0.0,0.0,61,0.00,,,0.00,,2013-05-20 17:22:00,
2013-05-20 12:33:00,79.0,64.0,29.89,North,0,0.0,0.0,61,0.00,,,0.00,,2013-05-20 17:33:00,
2013-05-20 12:45:00,79.0,64.0,29.89,North,0,0.0,0.0,61,0.00,,,0.00,,2013-05-20 17:45:00,
2013-05-20 12:53:00,79.0,64.0,29.89,North,0,0.0,0.0,61,0.00,,,0.00,,2013-05-20 17:53:00,
2013-05-20 13:02:00,83.0,67.0,29.86,North,0,0.0,0.0,58,0.00,,,0.00,,2013-05-20 18:02:00,
2013-05-20 13:12:00,83.0,67.0,29.86,SW,223,3.0,12.0,59,0.00,,,0.00,,2013-05-20 18:12:00,
2013-05-20 13:23:00,83.0,67.0,29.86,SW,223,3.0,12.0,59,0.00,,,0.00,,2013-05-20 18:23:00,
2013-05-20 13:32:00,83.0,69.0,29.86,SSW,207,3.0,10.0,63,0.00,,,0.00,,2013-05-20 18:32:00,
2013-05-20 13:41:00,83.0,69.0,29.86,SSW,207,3.0,10.0,63,0.00,,,0.00,,2013-05-20 18:41:00,
2013-05-20 13:55:00,83.0,69.0,29.86,SSW,203,2.0,8.0,63,0.00,,,0.00,,2013-05-20 18:55:00,
2013-05-20 14:04:00,83.0,70.0,29.86,SSW,213,1.0,8.0,65,0.00,,,0.00,,2013-05-20 19:04:00,
2013-05-20 14:11:00,82.0,70.0,29.86,SE,137,0.0,6.0,68,0.00,,,0.00,,2013-05-20 19:11:00,
2013-05-20 14:21:00,82.0,70.0,29.86,SE,137,0.0,6.0,68,0.00,,,0.00,,2013-05-20 19:21:00,
2013-05-20 14:32:00,83.0,70.0,29.86,ESE,120,1.0,8.0,65,0.00,,,0.00,,2013-05-20 19:32:00,
2013-05-20 14:41:00,83.0,70.0,29.85,SE,146,1.0,10.0,65,0.00,,,0.00,,2013-05-20 19:41:00,
2013-05-20 14:52:00,83.0,70.0,29.85,SE,146,1.0,10.0,65,0.00,,,0.00,,2013-05-20 19:52:00,
2013-05-20 15:01:00,82.0,70.0,29.85,SSW,204,1.0,10.0,67,0.00,,,0.00,,2013-05-20 20:01:00,
2013-05-20 15:12:00,84.0,71.0,29.85,SSE,163,2.0,12.0,65,0.00,,,0.00,,2013-05-20 20:12:00,
2013-05-20 15:21:00,84.0,71.0,29.85,SSE,163,2.0,12.0,65,0.00,,,0.00,,2013-05-20 20:21:00,
2013-05-20 15:32:00,84.0,71.0,29.85,SE,130,1.0,8.0,65,0.00,,,0.00,,2013-05-20 20:32:00,
2013-05-20 15:42:00,84.0,70.0,29.84,SE,133,1.0,7.0,63,0.00,,,0.00,,2013-05-20 20:42:00,
2013-05-20 15:52:00,84.0,70.0,29.84,SE,133,1.0,7.0,63,0.00,,,0.00,,2013-05-20 20:52:00,
2013-05-20 16:01:00,84.0,69.0,29.83,South,177,2.0,11.0,60,0.00,,,0.00,,2013-05-20 21:01:00,
2013-05-20 16:11:00,84.0,69.0,29.83,SE,142,1.0,11.0,61,0.00,,,0.00,,2013-05-20 21:11:00,
2013-05-20 16:21:00,84.0,69.0,29.83,SE,142,1.0,11.0,61,0.00,,,0.00,,2013-05-20 21:21:00,
2013-05-20 16:32:00,85.0,69.0,29.82,SSE,163,1.0,11.0,59,0.00,,,0.00,,2013-05-20 21:32:00,
2013-05-20 16:43:00,85.0,69.0,29.82,SSE,163,1.0,11.0,59,0.00,,,0.00,,2013-05-20 21:43:00,
2013-05-20 16:53:00,85.0,69.0,29.82,SSE,163,1.0,11.0,59,0.00,,,0.00,,2013-05-20 21:53:00,
2013-05-20 17:02:00,84.0,70.0,29.82,SE,133,0.0,6.0,62,0.00,,,0.00,,2013-05-20 22:02:00,
2013-05-20 17:12:00,84.0,68.0,29.82,SSE,147,1.0,7.0,59,0.00,,,0.00,,2013-05-20 22:12:00,
2013-05-20 17:23:00,84.0,68.0,29.82,SSE,147,1.0,7.0,59,0.00,,,0.00,,2013-05-20 22:23:00,
2013-05-20 17:33:00,84.0,69.0,29.81,SSE,157,1.0,8.0,61,0.00,,,0.00,,2013-05-20 22:33:00,
2013-05-20 17:42:00,84.0,69.0,29.81,SSE,157,1.0,8.0,61,0.00,,,0.00,,2013-05-20 22:42:00,
2013-05-20 17:52:00,84.0,70.0,29.81,ESE,110,0.0,4.0,62,0.00,,,0.00,,2013-05-20 22:52:00,
2013-05-20 18:02:00,83.0,69.0,29.80,ESE,120,1.0,11.0,62,0.00,,,0.00,,2013-05-20 23:02:00,
2013-05-20 18:12:00,83.0,69.0,29.80,ESE,120,1.0,11.0,62,0.00,,,0.00,,2013-05-20 23:12:00,
2013-05-20 18:22:00,83.0,70.0,29.80,ESE,116,1.0,7.0,64,0.00,,,0.00,,2013-05-20 23:22:00,
2013-05-20 18:32:00,82.0,69.0,29.79,ESE,114,0.0,5.0,65,0.00,,,0.00,,2013-05-20 23:32:00,
2013-05-20 18:42:00,82.0,69.0,29.79,ESE,114,0.0,5.0,65,0.00,,,0.00,,2013-05-20 23:42:00,
2013-05-20 18:53:00,82.0,69.0,29.78,ESE,105,0.0,6.0,65,0.00,,,0.00,,2013-05-20 23:53:00,
2013-05-20 19:01:00,82.0,69.0,29.78,SE,133,1.0,7.0,66,0.00,,,0.00,,2013-05-21 00:01:00,
2013-05-20 19:11:00,82.0,69.0,29.78,SE,133,1.0,7.0,66,0.00,,,0.00,,2013-05-21 00:11:00,
2013-05-20 19:21:00,81.0,69.0,29.77,SSE,147,0.0,7.0,67,0.00,,,0.00,,2013-05-21 00:21:00,
2013-05-20 19:31:00,81.0,69.0,29.77,SE,135,1.0,8.0,68,0.00,,,0.00,,2013-05-21 00:31:00,
2013-05-20 19:41:00,80.0,68.0,29.77,ESE,122,1.0,7.0,67,0.00,,,0.00,,2013-05-21 00:41:00,
2013-05-20 19:52:00,80.0,68.0,29.77,ESE,122,1.0,7.0,67,0.00,,,0.00,,2013-05-21 00:52:00,
2013-05-20 20:01:00,80.0,68.0,29.77,ESE,120,0.0,6.0,68,0.00,,,0.00,,2013-05-21 01:01:00,
2013-05-20 20:11:00,80.0,68.0,29.77,ESE,120,0.0,6.0,68,0.00,,,0.00,,2013-05-21 01:11:00,
2013-05-20 20:21:00,80.0,69.0,29.78,SE,143,0.0,7.0,69,0.00,,,0.00,,2013-05-21 01:21:00,
2013-05-20 20:32:00,79.0,68.0,29.78,ESE,121,0.0,8.0,70,0.00,,,0.00,,2013-05-21 01:32:00,
2013-05-20 20:42:00,79.0,69.0,29.78,SE,133,0.0,6.0,71,0.00,,,0.00,,2013-05-21 01:42:00,
2013-05-20 20:52:00,79.0,69.0,29.78,SE,133,0.0,6.0,71,0.00,,,0.00,,2013-05-21 01:52:00,
2013-05-20 21:02:00,78.0,68.0,29.80,ESE,123,0.0,3.0,72,0.00,,,0.00,,2013-05-21 02:02:00,
2013-05-20 21:11:00,78.0,68.0,29.80,SE,136,0.0,4.0,72,0.00,,,0.00,,2013-05-21 02:11:00,
2013-05-20 21:21:00,78.0,68.0,29.80,SE,136,0.0,4.0,72,0.00,,,0.00,,2013-05-21 02:21:00,
2013-05-20 21:32:00,77.0,68.0,29.80,ESE,121,1.0,8.0,74,0.00,,,0.00,,2013-05-21 02:32:00,
2013-05-20 21:41:00,77.0,68.0,29.80,ESE,121,0.0,7.0,75,0.00,,,0.00,,2013-05-21 02:41:00,
2013-05-20 21:52:00,77.0,68.0,29.80,ESE,121,0.0,7.0,75,0.00,,,0.00,,2013-05-21 02:52:00,
2013-05-20 22:02:00,77.0,69.0,29.79,SSE,149,0.0,7.0,76,0.00,,,0.00,,2013-05-21 03:02:00,
2013-05-20 22:11:00,76.0,68.0,29.80,SE,140,0.0,8.0,77,0.00,,,0.00,,2013-05-21 03:11:00,
2013-05-20 22:21:00,76.0,68.0,29.80,SE,140,0.0,8.0,77,0.00,,,0.00,,2013-05-21 03:21:00,
2013-05-20 22:33:00,76.0,68.0,29.80,SE,141,0.0,5.0,77,0.00,,,0.00,,2013-05-21 03:33:00,
2013-05-20 22:43:00,76.0,69.0,29.80,SE,129,0.0,7.0,78,0.00,,,0.00,,2013-05-21 03:43:00,
2013-05-20 22:53:00,76.0,69.0,29.80,SE,129,0.0,7.0,78,0.00,,,0.00,,2013-05-21 03:53:00,
2013-05-20 23:03:00,76.0,69.0,29.80,SSE,149,0.0,5.0,79,0.00,,,0.00,,2013-05-21 04:03:00,
2013-05-20 23:13:00,76.0,69.0,29.80,SSE,149,0.0,5.0,79,0.00,,,0.00,,2013-05-21 04:13:00,
2013-05-20 23:23:00,76.0,69.0,29.81,SE,138,0.0,7.0,79,0.00,,,0.00,,2013-05-21 04:23:00,
2013-05-20 23:33:00,76.0,69.0,29.81,SE,144,0.0,5.0,79,0.00,,,0.00,,2013-05-21 04:33:00,
2013-05-20 23:42:00,76.0,69.0,29.81,SE,144,0.0,5.0,79,0.00,,,0.00,,2013-05-21 04:42:00,
2013-05-20 23:53:00,76.0,69.0,29.82,SSE,154,0.0,3.0,79,0.00,,,0.00,,2013-05-21 04:53:00,